Location: Poughquag
(41.6090°N, 73.6820°W)
Time: 11:47:33
(UTC-04:00)

A-11 Canister half - Pass Details

Date: 29 May 2020
Orbit: 1527 x 1682 km, 47.3° (Epoch: 06 July)

Event Time Altitude Azimuth Distance (km) Brightness Sun altitude
Rises 09:09:46 0° 244° (WSW) 4,669 11.1 39.7°
Reaches altitude 10° 09:12:47 10° 245° (WSW) 3,691 10.7 40.2°
Maximum altitude 09:22:08 86° 335° (NNW) 1,551 9.8 42.0°
Drops below altitude 10° 09:31:43 10° 65° (ENE) 3,777 11.8 43.7°
Sets 09:34:50 0° 66° (ENE) 4,784 12.2 44.3°
